Weather History for Glasgow, MT

Change the Weather History Date:

Friday, November 1, 2013

  Actual Average Record
Temperature  
Mean Temperature 42 °F 37 °F  
Max Temperature 56 °F 48 °F 76 °F (1901)
Min Temperature 28 °F 26 °F -10 °F (1984)
Degree Days  
Heating Degree Days 23 28  
Month to date heating degree days 23 28  
Since 1 July heating degree days 828 952  
Cooling Degree Days 0 0  
Month to date cooling degree days 0 0  
Year to date cooling degree days 563 533  
Moisture  
Dew Point 26 °F    
Average Humidity 54    
Maximum Humidity 82    
Minimum Humidity 26    
Precipitation  
Precipitation 0.00 in 0.01 in 0.38 in (1938)
Month to date precipitation 0.00 0.01  
Year to date precipitation 14.66 10.87  
Snow  
Snow 0.00 in 0.10 in 1.80 in (1936)
Month to date snowfall 0.0 0.1  
Since 1 July snowfall 0.1 1.6  
Since 1 September snowfall 0.1 1.6  
Snow Depth 0.00 in    
Sea Level Pressure  
Sea Level Pressure 30.01 in    
Wind  
Wind Speed 11 mph (WNW)    
Max Wind Speed 28 mph    
Max Gust Speed 36 mph    
Visibility 10 miles    
Events      
T = Trace of Precipitation, MM = Missing Value Source: NWS Daily Summary

Daily Weather History Graph

Daily Weather History Graph

Search for Another Location

Airport:

Trip Planner

Search our weather history database for the weather conditions in past years. The results will help you decide how hot, cold, wet, or windy it might be!

Date:

Astronomy

Nov. 01, 2013 Rise Set
Actual Time 7:52 AM MDT 5:47 PM MDT
Civil Twilight 7:19 AM MDT 6:19 PM MDT
Nautical Twilight 6:42 AM MDT 6:56 PM MDT
Astronomical Twilight 6:06 AM MDT 7:32 PM MDT
Moon 5:39 AM MDT 4:47 PM MDT
Length of Visible Light 10h 59m
Length of Day
9h 54m
Waning Crescent, 4% of the Moon is Illuminated
Nov 1
Waning Crescent
Nov 3
New
Nov 9
First Quarter
Nov 17
Full
Nov 25
Last Quarter

Hourly Weather History & Observations

Time (MDT) Temp. Windchill Dew Point Humidity Pressure Visibility Wind Dir Wind Speed Gust Speed Precip Events Conditions
12:53 AM 41.0 °F 33.5 °F 33.1 °F 73% 29.81 in 10.0 mi West 13.8 mph - N/A   Overcast
1:53 AM 37.9 °F 30.9 °F 32.0 °F 79% 29.82 in 10.0 mi West 10.4 mph - N/A   Partly Cloudy
2:53 AM 37.0 °F 28.5 °F 30.9 °F 79% 29.84 in 10.0 mi West 13.8 mph - N/A   Clear
3:53 AM 41.0 °F 30.7 °F 30.9 °F 67% 29.86 in 10.0 mi WNW 25.3 mph 33.4 mph N/A   Clear
4:53 AM 39.9 °F 29.5 °F 30.0 °F 68% 29.90 in 10.0 mi WNW 24.2 mph 33.4 mph N/A   Overcast
5:53 AM 37.0 °F 27.7 °F 28.9 °F 73% 29.95 in 10.0 mi WNW 16.1 mph 26.5 mph N/A   Clear
6:53 AM 35.1 °F 27.9 °F 28.9 °F 78% 29.99 in 10.0 mi West 9.2 mph - N/A   Clear
7:53 AM 33.1 °F 26.9 °F 27.0 °F 78% 30.03 in 10.0 mi NW 6.9 mph - N/A   Clear
8:53 AM 33.1 °F 28.7 °F 28.9 °F 85% 30.05 in 10.0 mi West 4.6 mph - N/A   Clear
9:53 AM 37.9 °F 30.9 °F 30.0 °F 73% 30.06 in 10.0 mi WNW 10.4 mph - N/A   Clear
10:53 AM 44.1 °F 36.8 °F 30.0 °F 58% 30.07 in 10.0 mi WNW 16.1 mph - N/A   Clear
11:53 AM 48.9 °F - 30.0 °F 48% 30.06 in 10.0 mi WNW 10.4 mph - N/A   Clear
12:53 PM 53.1 °F - 27.0 °F 37% 30.05 in 10.0 mi WNW 21.9 mph 25.3 mph N/A   Clear
1:53 PM 55.0 °F - 25.0 °F 31% 30.04 in 10.0 mi North - - N/A   Partly Cloudy
2:53 PM 55.0 °F - 23.0 °F 29% 30.04 in 10.0 mi WNW 18.4 mph 26.5 mph N/A   Clear
3:53 PM 55.0 °F - 21.9 °F 28% 30.03 in 10.0 mi WNW 21.9 mph 27.6 mph N/A   Clear
4:53 PM 53.1 °F - 21.9 °F 30% 30.04 in 10.0 mi NW 11.5 mph - N/A   Clear
5:53 PM 46.0 °F 42.5 °F 21.9 °F 39% 30.06 in 10.0 mi WNW 6.9 mph - N/A   Clear
6:53 PM 42.1 °F 40.2 °F 21.0 °F 43% 30.08 in 10.0 mi NW 3.5 mph - N/A   Clear
7:53 PM 42.1 °F - 21.0 °F 43% 30.09 in 10.0 mi Calm Calm - N/A   Clear
8:53 PM 37.0 °F 33.3 °F 21.9 °F 54% 30.09 in 10.0 mi North 4.6 mph - N/A   Clear
9:53 PM 30.9 °F 25.2 °F 21.0 °F 67% 30.10 in 10.0 mi South 5.8 mph - N/A   Clear
10:53 PM 35.1 °F - 21.9 °F 59% 30.08 in 10.0 mi Calm Calm - N/A   Clear
11:53 PM 32.0 °F 28.7 °F 24.1 °F 73% 30.08 in 10.0 mi North 3.5 mph - N/A   Mostly Cloudy